Weather Service Report


108 
ASUS45 KCYS 151210
RWRWY 

WYOMING REGIONAL WEATHER ROUNDUP
NATIONAL WEATHER SERVICE CHEYENNE WY
600 AM MDT MON OCT 15 2018

NOTE:  "FAIR" INDICATES FEW OR NO CLOUDS BELOW 12,000 FEET
WITH NO SIGNIFICANT WEATHER AND/OR OBSTRUCTIONS TO VISIBILITY.

WYZ001-151300-
YELLOWSTONE NATIONAL PARK
  
CITY           SKY/WX    TMP DP  RH WIND       PRES   REMARKS
LK YELLOWSTONE   N/A      4   0  83 CALM      30.37R                  
6HR MIN TEMP:   3; 6HR MAX TEMP:   5;                                

W YELLOWSTONE  NOT AVBL                                               

$$
WYZ002>013-054>058-071-098>099-151300-
NORTHERN WYOMING
  
CITY           SKY/WX    TMP DP  RH WIND       PRES   REMARKS
JACKSON        FAIR      11   5  77 NE3       30.40R                  
CODY           FAIR      16  12  84 CALM      30.27S                  
GREYBULL       FAIR      19  15  84 SE3       30.33S                  
6HR MIN TEMP:  18; 6HR MAX TEMP:  23;                                

WORLAND        FAIR      16  12  84 CALM      30.33R                  
6HR MIN TEMP:  16; 6HR MAX TEMP:  20;                                

SHERIDAN       FAIR      14   8  77 S3        30.20F                  
6HR MIN TEMP:  12; 6HR MAX TEMP:  23;                                

BUFFALO        FAIR      26   7  44 NW6       30.19S WCI  19          
6HR MIN TEMP:  20; 6HR MAX TEMP:  27;                                

GILLETTE       FAIR      22  14  71 SW18      30.22S WCI   7          
6HR MIN TEMP:  22; 6HR MAX TEMP:  23;                                

HULETT         FAIR      23  16  74 MISG      30.22S                  
NEWCASTLE      FAIR      12  10  92 CALM      30.28R                  

$$
WYZ014>020-022>026-101>103-151300-
CENTRAL WYOMING
  
CITY           SKY/WX    TMP DP  RH WIND       PRES   REMARKS
BIG PINEY      FAIR       5   0  79 SW5       30.33R WCI  -4          
6HR MIN TEMP:   5; 6HR MAX TEMP:  19;                                

PINEDALE       FAIR      12  10  92 MISG      30.33R                  
DUBOIS         FAIR      27   3  36 W22       30.26S WCI  12          
LANDER         FAIR      14   8  77 CALM      30.30F                  
6HR MIN TEMP:  14; 6HR MAX TEMP:  20;                                

RIVERTON       FAIR      14  11  87 NW6       30.31S WCI   5          
6HR MIN TEMP:  13; 6HR MAX TEMP:  21;                                

CASPER         FAIR      19  14  81 W7        30.29S WCI  10          
6HR MIN TEMP:  17; 6HR MAX TEMP:  21;                                

DOUGLAS        FAIR      14  11  87 W3        30.29F                  
6HR MIN TEMP:  13; 6HR MAX TEMP:  18;                                


$$
WYZ021-027>030-104>119-151300-
SOUTHERN WYOMING
  
CITY           SKY/WX    TMP DP  RH WIND       PRES   REMARKS
EVANSTON       FAIR      18  13  80 S6        30.36R WCI  10          
6HR MIN TEMP:  18; 6HR MAX TEMP:  24;                                

KEMMERER       FAIR      19   9  63 W9        30.33S WCI   9          
ROCK SPRINGS   FAIR      20  12  71 W12       30.33R WCI   8          
6HR MIN TEMP:  19; 6HR MAX TEMP:  23;                                

DIXON          FAIR      18  10  73 E5        30.38S WCI  11          
RAWLINS        FAIR      17  11  77 S5        30.31S WCI  10          
6HR MIN TEMP:  14; 6HR MAX TEMP:  19;                                

SARATOGA       FAIR      18  10  73 SE10      30.33R WCI   6          
LARAMIE        FAIR       5   0  79 CALM      30.27R                  
6HR MIN TEMP:   0; 6HR MAX TEMP:   8;                                

CHEYENNE       FAIR      13   5  70 W8        30.28R WCI   2          
6HR MIN TEMP:  12; 6HR MAX TEMP:  17;                                

TORRINGTON     FAIR       7   5  91 CALM      30.31S                  
6HR MIN TEMP:   6; 6HR MAX TEMP:  18;                                

PINE BLUFFS    FAIR       7   1  78 MISG      30.31S                  

$$
  


296 
ASUS45 KCYS 151210
RWRWY 

WYOMING REGIONAL WEATHER ROUNDUP
NATIONAL WEATHER SERVICE CHEYENNE WY
600 AM MDT MON OCT 15 2018

NOTE:  "FAIR" INDICATES FEW OR NO CLOUDS BELOW 12,000 FEET
WITH NO SIGNIFICANT WEATHER AND/OR OBSTRUCTIONS TO VISIBILITY.

WYZ001-151300-
...YELLOWSTONE NATIONAL PARK...
  
CITY           SKY/WX    TMP DP  RH WIND       PRES   REMARKS
LK YELLOWSTONE   N/A      4   0  83 CALM      30.37R                  
6HR MIN TEMP:   3; 6HR MAX TEMP:   5;                                

W YELLOWSTONE  NOT AVBL                                               

$$
WYZ002>013-054>058-071-098>099-151300-
...NORTHERN WYOMING...
  
CITY           SKY/WX    TMP DP  RH WIND       PRES   REMARKS
JACKSON        PTCLDY    11   5  77 NE3       30.40R                  
CODY           CLEAR     16  12  84 CALM      30.27S                  
GREYBULL       CLEAR     19  15  84 SE3       30.33S                  
6HR MIN TEMP:  18; 6HR MAX TEMP:  23;                                

WORLAND        CLEAR     16  12  84 CALM      30.33R                  
6HR MIN TEMP:  16; 6HR MAX TEMP:  20;                                

SHERIDAN       CLEAR     14   8  77 S3        30.20F                  
6HR MIN TEMP:  12; 6HR MAX TEMP:  23;                                

BUFFALO        PTCLDY    26   7  44 NW6       30.19S WCI  19          
6HR MIN TEMP:  20; 6HR MAX TEMP:  27;                                

GILLETTE       CLEAR     22  14  71 SW18      30.22S WCI   7          
6HR MIN TEMP:  22; 6HR MAX TEMP:  23;                                

HULETT         FAIR      23  16  74 MISG      30.22S                  
NEWCASTLE      FAIR      12  10  92 CALM      30.28R                  

$$
WYZ014>020-022>026-101>103-151300-
...CENTRAL WYOMING...
  
CITY           SKY/WX    TMP DP  RH WIND       PRES   REMARKS
BIG PINEY      CLEAR      5   0  79 SW5       30.33R WCI  -4          
6HR MIN TEMP:   5; 6HR MAX TEMP:  19;                                

PINEDALE       CLEAR     12  10  92 MISG      30.33R                  
DUBOIS         FAIR      27   3  36 W22       30.26S WCI  12          
LANDER         CLEAR     14   8  77 CALM      30.30F                  
6HR MIN TEMP:  14; 6HR MAX TEMP:  20;                                

RIVERTON       CLEAR     14  11  87 NW6       30.31S WCI   5          
6HR MIN TEMP:  13; 6HR MAX TEMP:  21;                                

CASPER         CLEAR     19  14  81 W7        30.29S WCI  10          
6HR MIN TEMP:  17; 6HR MAX TEMP:  21;                                

DOUGLAS        CLEAR     14  11  87 W3        30.29F                  
6HR MIN TEMP:  13; 6HR MAX TEMP:  18;                                


$$
WYZ021-027>030-104>119-151300-
...SOUTHERN WYOMING...
  
CITY           SKY/WX    TMP DP  RH WIND       PRES   REMARKS
EVANSTON       CLEAR     18  13  80 S6        30.36R WCI  10          
6HR MIN TEMP:  18; 6HR MAX TEMP:  24;                                

KEMMERER       CLEAR     19   9  63 W9        30.33S WCI   9          
FORT BRIDGER   FAIR      23  14  70 W15       30.36R WCI  10          
ROCK SPRINGS   CLEAR     20  12  71 W12       30.33R WCI   8          
6HR MIN TEMP:  19; 6HR MAX TEMP:  23;                                

DIXON          FAIR      18  10  73 E5        30.38S WCI  11          
RAWLINS        CLEAR     17  11  77 S5        30.31S WCI  10          
6HR MIN TEMP:  14; 6HR MAX TEMP:  19;                                

SARATOGA       FAIR      18  10  73 SE10      30.33R WCI   6          
LARAMIE        CLEAR      5   0  79 CALM      30.27R                  
6HR MIN TEMP:   0; 6HR MAX TEMP:   8;                                

CHEYENNE       CLEAR     13   5  70 W8        30.28R WCI   2          
6HR MIN TEMP:  12; 6HR MAX TEMP:  17;                                

TORRINGTON     CLEAR      7   5  91 CALM      30.31S                  
6HR MIN TEMP:   6; 6HR MAX TEMP:  18;                                

PINE BLUFFS    FAIR       7   1  78 MISG      30.31S                  

$$
  

Return to Home page


Western Regional Climate Center, wrcc@dri.edu